Location: Newark
(38.1089°N, 103.8675°W)
Time: 06:30:13
(UTC+00:00)

Envisat - Pass Details

Date: 22 December 2019
Orbit: 764 x 766 km, 98.1° (Epoch: 27 January)

Event Time Altitude Azimuth Distance (km) Brightness Sun altitude
Rises 01:46:05 0° 196° (SSW) 3,217 6.6 -24.1°
Reaches altitude 10° 01:48:43 10° 209° (SSW) 2,296 5.9 -24.7°
Maximum altitude 01:52:55 26° 265° (W) 1,475 5.1 -25.5°
Drops below altitude 10° 01:57:09 10° 321° (NW) 2,309 5.8 -26.3°
Sets 01:59:49 0° 334° (NNW) 3,240 6.4 -26.8°
